sat.trackr.live / text

‹ back to catalog

STARLINK-4660

NORAD 53609 · 2022-104X

PAYLOAD ACTIVE UNKNOWN

§ Identity

Operator
Country
US
Launch date
2022-08-28
Launch site
AFETR
Launch vehicle
Mass (kg)
RCS (m²)

Purposes: comms

External: N2YO · Heavens-Above · Gunter

§ Orbital elements

Epoch: 2026-05-25T00:38:43.501632Z

Period
95.44 min
Inclination
53.2145°
Eccentricity
0.0001145
Mean motion
15.08835471 rev/d
Perigee alt
539.0 km
Apogee alt
540.5 km
Semi-major
6,917.9 km
B*
6.2932e-5
RAAN
256.1255°
Arg perigee
87.2958°
Mean anomaly
272.8165°
Rev number
20,721

§ Raw data

STARLINK-46601 53609U 22104X   26145.02689238  .00000714  00000+0  62932-4 0  99952 53609  53.2145 256.1255 0001145  87.2958 272.8165 15.08835471207216

JSON: /api/v1/satellites/53609 · /tle

For live sub-satellite position, see the globe view (requires WebGL).

§ Visibility from observer

Set your observer location to see the next 7 days of passes ≥ 10°. The values pass through the URL so the page stays shareable.

No JS? Fill the form by hand. The geolocation button needs JavaScript.